CFREE KBED-CYTZ

Flight info

Callsign CFREE
Flight time N/A
Altitude 28000
Route GLYDE DCT CTR DCT STUBN DCT BENEE DCT WOZEE
Aircraft TBM8/L-SDFGRWY/S

Departure

Time 2026-04-28 00:41
Airport Laurence G Hanscom Field (KBED)

Arrival

Time N/A
Airport Billy Bishop Toronto City Airport (CYTZ)
Time Latitude Longitude Altitude Speed Heading
2026-04-28 00:08 42.46717 -71.29936 132 ft 0 kts 245°
2026-04-28 00:24 42.46718 -71.29947 131 ft 2 kts 319°
2026-04-28 00:25 42.46737 -71.29935 131 ft 4 kts 28°
2026-04-28 00:25 42.46788 -71.29946 132 ft 12 kts 338°
2026-04-28 00:25 42.46882 -71.29996 134 ft 12 kts 339°
2026-04-28 00:25 42.46933 -71.30024 134 ft 5 kts 337°
2026-04-28 00:26 42.46963 -71.30037 135 ft 5 kts 351°
2026-04-28 00:26 42.47026 -71.30032 134 ft 14 kts
2026-04-28 00:26 42.47076 -71.30024 134 ft 0 kts
2026-04-28 00:33 42.47078 -71.30024 134 ft 1 kts
2026-04-28 00:33 42.47079 -71.30023 134 ft 1 kts
2026-04-28 00:33 42.47091 -71.30021 134 ft 0 kts
2026-04-28 00:39 42.47154 -71.30010 135 ft 18 kts 20°
2026-04-28 00:40 42.47165 -71.29825 138 ft 40 kts 98°
2026-04-28 00:40 42.47104 -71.29182 132 ft 96 kts 97°
2026-04-28 00:40 42.47023 -71.28133 264 ft 121 kts 93°
2026-04-28 00:40 42.46918 -71.26942 620 ft 133 kts 98°
2026-04-28 00:41 42.46777 -71.25621 928 ft 148 kts 98°
2026-04-28 00:41 42.46650 -71.24199 1429 ft 150 kts 88°
2026-04-28 00:41 42.47131 -71.22966 1826 ft 158 kts 39°
2026-04-28 00:41 42.48007 -71.22109 2312 ft 158 kts 27°
2026-04-28 00:42 42.49085 -71.21981 2789 ft 161 kts 347°
2026-04-28 00:42 42.50166 -71.22392 3252 ft 161 kts 346°
2026-04-28 00:42 42.51134 -71.23117 3749 ft 164 kts 311°
2026-04-28 00:42 42.51431 -71.24605 4199 ft 172 kts 263°
2026-04-28 00:43 42.50892 -71.26068 4597 ft 178 kts 234°
2026-04-28 00:43 42.50162 -71.27445 5022 ft 181 kts 236°
2026-04-28 00:43 42.49478 -71.28887 5443 ft 184 kts 240°
2026-04-28 00:43 42.48827 -71.30388 5868 ft 186 kts 241°
2026-04-28 00:44 42.48172 -71.31912 6289 ft 188 kts 242°
2026-04-28 00:44 42.47504 -71.33463 6693 ft 193 kts 242°
2026-04-28 00:44 42.46826 -71.35037 7103 ft 194 kts 242°
2026-04-28 00:44 42.46143 -71.36618 7515 ft 195 kts 242°
2026-04-28 00:45 42.45456 -71.38211 7923 ft 196 kts 242°
2026-04-28 00:45 42.44764 -71.39813 8347 ft 198 kts 242°
2026-04-28 00:45 42.44069 -71.41421 8771 ft 199 kts 242°
2026-04-28 00:45 42.43368 -71.43042 9196 ft 200 kts 242°
2026-04-28 00:46 42.42662 -71.44673 9624 ft 201 kts 242°
2026-04-28 00:46 42.41952 -71.46314 10050 ft 203 kts 242°
2026-04-28 00:46 42.41238 -71.47964 10450 ft 203 kts 242°
2026-04-28 00:46 42.40523 -71.49613 10847 ft 203 kts 242°
2026-04-28 00:47 42.39808 -71.51263 11244 ft 203 kts 242°
2026-04-28 00:47 42.39091 -71.52915 11646 ft 203 kts 242°
2026-04-28 00:47 42.38374 -71.54565 12049 ft 204 kts 243°
2026-04-28 00:47 42.37657 -71.56217 12450 ft 203 kts 243°
2026-04-28 00:48 42.36941 -71.57863 12841 ft 203 kts 243°
2026-04-28 00:48 42.36224 -71.59513 13241 ft 204 kts 243°
2026-04-28 00:48 42.35505 -71.61167 13642 ft 204 kts 243°
2026-04-28 00:48 42.34784 -71.62821 14041 ft 204 kts 243°
2026-04-28 00:49 42.34063 -71.64477 14366 ft 205 kts 243°
2026-04-28 00:49 42.33335 -71.66149 14677 ft 207 kts 243°
2026-04-28 00:49 42.32601 -71.67834 15002 ft 209 kts 244°
2026-04-28 00:49 42.31860 -71.69530 15322 ft 210 kts 244°
2026-04-28 00:50 42.31117 -71.71234 15639 ft 212 kts 244°
2026-04-28 00:50 42.30366 -71.72955 15956 ft 213 kts 244°
2026-04-28 00:50 42.29608 -71.74687 16270 ft 215 kts 244°
2026-04-28 00:50 42.28846 -71.76431 16586 ft 216 kts 244°
2026-04-28 00:51 42.28077 -71.78187 16911 ft 218 kts 244°
2026-04-28 00:51 42.27306 -71.79959 17221 ft 219 kts 246°
2026-04-28 00:51 42.26844 -71.81867 17524 ft 211 kts 269°
2026-04-28 00:51 42.26830 -71.83815 17850 ft 207 kts 280°
2026-04-28 00:52 42.26887 -71.85765 18173 ft 209 kts 279°
2026-04-28 00:52 42.26932 -71.87705 18493 ft 210 kts 279°
2026-04-28 00:52 42.26980 -71.89679 18786 ft 211 kts 279°
2026-04-28 00:52 42.27030 -71.91655 19051 ft 211 kts 280°
2026-04-28 00:53 42.27078 -71.93626 19348 ft 210 kts 280°
2026-04-28 00:53 42.27128 -71.95601 19637 ft 210 kts 281°
2026-04-28 00:53 42.27175 -71.97577 19928 ft 211 kts 281°
2026-04-28 00:53 42.27222 -71.99554 20225 ft 211 kts 281°
2026-04-28 00:54 42.27270 -72.01531 20511 ft 211 kts 281°
2026-04-28 00:54 42.27318 -72.03516 20800 ft 212 kts 282°
2026-04-28 00:54 42.27365 -72.05503 21090 ft 212 kts 282°
2026-04-28 00:54 42.27413 -72.07496 21385 ft 213 kts 282°
2026-04-28 00:55 42.27458 -72.09493 21684 ft 213 kts 283°
2026-04-28 00:55 42.27503 -72.11495 21959 ft 214 kts 283°
2026-04-28 00:55 42.27550 -72.13500 22240 ft 214 kts 283°
2026-04-28 00:55 42.27597 -72.15507 22522 ft 214 kts 283°
2026-04-28 00:56 42.27642 -72.17522 22787 ft 215 kts 284°
2026-04-28 00:56 42.27687 -72.19540 23048 ft 215 kts 284°
2026-04-28 00:56 42.27731 -72.21556 23337 ft 215 kts 284°
2026-04-28 00:56 42.27777 -72.23581 23603 ft 216 kts 284°
2026-04-28 00:57 42.27821 -72.25613 23835 ft 217 kts 285°
2026-04-28 00:57 42.27864 -72.27642 24076 ft 216 kts 285°
2026-04-28 00:57 42.27909 -72.29670 24300 ft 216 kts 285°
2026-04-28 00:57 42.27953 -72.31703 24517 ft 217 kts 285°